Location: Gradaro
(45.0833°N, 10.8833°E)
Time: 22:45:34
(UTC+00:00)

Cosmos 2263 Rocket - Pass Details

Date: 29 April 2021
Orbit: 824 x 848 km, 71.0° (Epoch: 14 May)

Event Time Altitude Azimuth Distance (km) Brightness Sun altitude
Rises 21:57:00 0° 257° (WSW) 3,355 5.4 -27.7°
Reaches altitude 10° 22:00:20 10° 277° (W) 2,427 4.9 -27.9°
Maximum altitude 22:03:51 17° 317° (NW) 1,990 4.8 -28.1°
Drops below altitude 10° 22:07:25 10° 357° (N) 2,441 5.5 -28.3°
Sets 22:10:48 0° 17° (NNE) 3,382 6.1 -28.5°
